Location: Dal�� Lhota
(48.7500°N, 14.0167°E)
Time: 23:18:29
(UTC+00:00)

ARGOS - Pass Details

Date: 24 September 2020
Orbit: 821 x 834 km, 98.4° (Epoch: 25 October)

Event Time Altitude Azimuth Distance (km) Brightness Sun altitude
Rises 17:22:40 0° 138° (SE) 3,347 5.9 -5.1°
Reaches altitude 10° 17:25:08 10° 130° (SE) 2,419 5.1 -5.5°
Maximum altitude 17:30:00 37° 65° (ENE) 1,267 3.7 -6.3°
Drops below altitude 10° 17:34:55 10° 360° (N) 2,441 5.7 -7.1°
Sets 17:37:26 0° 352° (N) 3,381 6.5 -7.5°
